星链-2431 (STARLINK-2431 )

导读 | 豆包AI

STARLINK-2431是美国SpaceX公司星链(Starlink)项目旗下的一颗低轨通信卫星,于2021年3月11日发射入轨,目前运行在近地点高度546km、远地点高度548km的近地轨道,轨道倾角约53.05°,每日绕地球约15圈,承担着为全球用户提供低延迟高速互联网接入服务的任务,是星链全球卫星互联网星座组网过程中的重要组成单元。

Basic Information
目录编号:
47839
目录名称:
STARLINK-2431
国际标识:
2021-018BE
轨道中心:
EARTH
卫星名称:
星链-2431
卫星全名:
星链-2431 (STARLINK-2431 )
卫星状态:
在轨 (已飞行1829 天)
发射日期:
2021-03-11 UTC
国别 :
美国 (US)
星等 :
--
Orbit Information
数据来源 国际轨道数据
星历时间: 2026-03-13T17:02:23+0800
1天前
查看轨道信息
半长轴: 6853.364km
偏心率: 0.0001088
轨道倾角: 53.159°
近地点辐角 81.924°
升交点赤经 199.786°
平近点角 278.189°
近地点: 474.481km
远地点: 475.973km
周期: 94.106分钟
每日圈数: 15.301963
Detailed Information
固有亮度:
5
最大亮度:
2.5
卫星平台:
Starlink V1.0
覆盖范围:
全球
运营商:
太空探索技术公司
运营商所在国:
美国
制造商(研发单位):
太空探索技术公司
制造商所在国:
美国
使用方式:
暂无
Satellite Introduction
星链(Starlink)计划是由太空探索技术公司(SpaceX)提出的一个巨型低轨卫星互联网星座项目,计划在2019年至2024年间在太空搭建由约1.2万颗卫星组成的“星链”网络,其中1584颗将部署在地球上空550千米处的近地轨道,并从2020年开始工作。该卫星仍在工作。
2D Orbit Map
3D Orbit Map
Orbit Altitude Analysis Chart
Orbit Inclination Analysis Chart
Orbit Comprehensive Analysis Chart
View Comprehensive Chart